Location: Clermont
(50.2608°N, 4.3172°E)
Time: 09:29:48
(UTC+00:00)

BREEZE-M DEB (TANK) - Pass Details

Date: 13 August 2020
Orbit: 279 x 20489 km, 49.2° (Epoch: 20 September)

Event Time Altitude Azimuth Distance (km) Brightness Sun altitude
Rises 19:56:52 0° 265° (W) 3,771 8.0 -8.1°
Reaches altitude 10° 20:00:30 10° 264° (W) 1,861 6.3 -8.6°
Maximum altitude 20:03:45 72° 179° (S) 351 1.7 -9.0°
Enters shadow 20:05:30 12° 94° (E) 1,006 3.7 -9.2°
